User: anonymous   Login
Location: Unspecified
(0.0000°N, 0.0000°E)
Time: 02:11:50
(UTC+00:00)
Language:

STARLINK-2404 - Orbit

View from above orbital plane
View from above orbital plane
View from above satellite
View from above satellite

Ground track
Ground track

The orbit is defined by the following mean orbital elements,

1 48093U          26145.41478212 +.00000000 +00000-0 +57483-4 0 00005
2 48093  53.1613 158.0727 0001204  96.2170 263.8969 15.31703746    07
Epoch (UTC): 25 May 2026 09:57:17
Eccentricity: 0.0001204
inclination: 53.1613°
perigee height: 470 km
apogee height: 472 km
right ascension of ascending node: 158.0727°
argument of perigee: 96.2170°
revolutions per day: 15.31703746
mean anomaly at epoch: 263.8969°

The dashed part of the orbit path shows where the satellite is in the earth's shadow,  

DLR